Location: Austin
(30.3000°N, 97.7500°W)
Time: 19:13:51
(UTC-06:00)

ARGOS - Pass Details

Date: 31 October 2024
Orbit: 819 x 833 km, 98.4° (Epoch: 05 November)

Event Time Altitude Azimuth Distance (km) Brightness Sun altitude
Rises 06:07:49 0° 11° (N) 3,380 6.4 -21.4°
Reaches altitude 10° 06:10:10 10° 11° (N) 2,443 5.7 -20.9°
Maximum altitude 06:15:36 85° 285° (WNW) 840 3.1 -19.8°
Drops below altitude 10° 06:21:00 10° 196° (SSW) 2,430 5.5 -18.6°
Sets 06:23:20 0° 195° (SSW) 3,360 6.2 -18.1°
